Meteo Giornale » Osservazioni meteo Francia » Saint-Yan

ore: 17:00 - Osservazioni Meteo Saint-Yan
Lat. 46° 25' N Lon. 4° 1' E Alt. 242 metri s.l.m.

sereno

26 °C

Sereno

Temp. 24 Ore

12 °C

28 °C

Ovest

20.3 Km/h

Dew point 11 °C

Umidità 39 %

Visibilità  10 Km

Il sole sorge alle ore 07:02

Il sole tramonta alle ore 20:25

Data e Ora Cielo e Fenomeni T °C DP °C Um. % Pres. hPa Vis. km Vento km/h
Oggi h: 17:00 sereno Sereno 26 11 39 1020 10 O 20.3
Oggi h: 16:30 sereno Sereno 25 11 41 1020 10 O/SO 18.5
Oggi h: 16:00 sereno Sereno 25 12 44 1020 10 O 24
Oggi h: 15:30 sereno Sereno 24 13 50 1020 10 O 20.3
Oggi h: 15:00 sereno Sereno 24 12 47 1021 10 O 14.8
Oggi h: 14:30 sereno Sereno 24 12 47 1021 10 O 14.8
Oggi h: 14:00 molto_nuvoloso Molto Nuvoloso 23 12 49 1021 10 O 14.8
Oggi h: 13:30 molto_nuvoloso Molto Nuvoloso 23 11 46 1021 10 O 20.3
Oggi h: 13:00 molto_nuvoloso Molto Nuvoloso 22 13 56 1021 10 O/SO 18.5
Oggi h: 12:30 molto_nuvoloso Molto Nuvoloso 21 13 60 1021 10 O/SO 18.5
Oggi h: 12:00 molto_nuvoloso Molto Nuvoloso 22 14 60 1021 10 O/SO 18.5
Oggi h: 11:30 molto_nuvoloso Molto Nuvoloso 21 12 56 1021 10 O/SO 20.3
Oggi h: 11:00 molto_nuvoloso Molto Nuvoloso 21 13 60 1021 10 O/SO 14.8
Oggi h: 10:30 coperto Coperto 20 12 59 1021 10 O 14.8
Oggi h: 10:00 coperto Coperto 19 14 72 1020 10 S 9.3
Oggi h: 09:30 coperto Coperto 18 14 77 1020 10 S 9.3
Oggi h: 09:00 molto_nuvoloso Molto Nuvoloso 18 14 77 1020 10 S 9.3
Oggi h: 08:30 sereno Sereno 16 14 87 1020 10 SE 7.4
Oggi h: 08:00 sereno Sereno 14 14 100 1020 10 N 5.5
Oggi h: 07:30 sereno Sereno 12 12 100 1020 10 SE 9.3
Oggi h: 07:00 sereno Sereno 13 13 100 1019 10 SE 7.4
Oggi h: 06:30 sereno Sereno 13 13 100 1019 10 N 3.7
Oggi h: 06:00 sereno Sereno 14 14 100 1019 10 N 1.8
Oggi h: 05:30 sereno Sereno 14 14 100 1019 10 N 3.7
Oggi h: 05:00 sereno Sereno 15 14 93 1019 10 SO 7.4
Oggi h: 04:30 sereno Sereno 15 15 100 1019 10 N 5.5
Oggi h: 04:00 sereno Sereno 15 15 100 1019 10 N 3.7
Oggi h: 03:30 sereno Sereno 15 15 100 1019 10 N 5.5
Oggi h: 03:00 sereno Sereno 16 15 93 1019 10 N 5.5
Oggi h: 02:30 sereno Sereno 16 16 100 1019 10 N 5.5
Oggi h: 02:00 sereno Sereno 17 16 93 1018 10 N 5.5
Oggi h: 01:30 sereno Sereno 17 16 93 1018 10 N 5.5
Oggi h: 01:00 sereno Sereno 17 16 93 1018 10 N 5.5
Oggi h: 00:30 sereno Sereno 17 16 93 1018 10 N 5.5
Oggi h: 00:00 sereno Sereno 17 16 93 1018 10 N 5.5
Ieri h: 23:30 sereno Sereno 18 17 93 1018 10 N 5.5
Ieri h: 23:00 sereno Sereno 18 17 93 1018 10 N 3.7
Ieri h: 22:30 coperto Coperto 19 17 88 1017 10 O/NO 9.3
Ieri h: 22:00 nuvoloso Nuvoloso 19 17 88 1017 10 O/NO 9.3
Ieri h: 21:30 molto_nuvoloso Molto Nuvoloso 19 18 93 1017 10 O 13
Ieri h: 21:00 nuvoloso_temporali Temporale 20 18 88 1015 2 O/NO 14.8
Ieri h: 20:30 sereno Sereno 21 18 82 1015 10 NO 20.3
Ieri h: 20:00 sereno Sereno 21 17 77 1015 10 NO 24
Ieri h: 19:30 sereno Sereno 23 16 64 1014 10 NO 18.5
Ieri h: 19:00 coperto_temporali Temporale 27 16 50 1014 10 NO 7.4
Ieri h: 18:30 sereno Sereno 27 15 47 1014 10 N 5.5
Ieri h: 18:00 sereno Sereno 28 15 45 1014 10 NO 7.4